Regional Weather Roundup
Issued by NWS

Home | Current Version | Previous Version | Text Only | Print | Product List | Glossary On
Versions: 1 2 3 4 5 6 7 8 9 10 11 12 13 14 15 16 17 18 19 20 21 22 23 24 25 26 27 28 29 30 31 32 33 34 35 36 37 38 39 40 41 42 43 44 45 46 47 48 49 50
000
ASUS44 KJAN 062103
RWRMS

MISSISSIPPI HOURLY WEATHER ROUNDUP
NATIONAL WEATHER SERVICE JACKSON MS
400 PM CDT FRI MAY 06 2016

NOTE: "FAIR: INDICATES FEW OR NO CLOUDS BELOW 12,000 FEET WITH NO
SIGNIFICANT WEATHER AND/OR OBSTRUCTIONS TO VISIBILITY.

MSZ001>002-007>008-010>013-018>021-025>028-034>036-062200-
NORTHWEST MISSISSIPPI

CITY           SKY/WX    TMP DP  RH WIND       PRES   REMARKS
BATESVILLE     FAIR      73  43  33 NW7       30.05F
CLEVELAND      FAIR      74  44  34 NW12      30.05F
GREENWOOD      SUNNY     74  43  32 N8        30.04F
GREENVILLE     SUNNY     74  45  35 N10       30.05F
OLIVE BRANCH   MOSUNNY   72  46  40 N9        30.04F
OXFORD         FAIR      72  45  37 NW10G16   30.05F
TUNICA         CLEAR     72  45  37 NW9       30.05F
WINONA         FAIR      73  46  38 NW3       30.03F
$$

MSZ003>006-009-014>017-022>024-029>033-037>039-062200-
NORTHEAST MISSISSIPPI

CITY           SKY/WX    TMP DP  RH WIND       PRES   REMARKS
COLUMBUS AFB   SUNNY     74  50  42 N14G22    30.00F
CORINTH        FAIR      73  45  35 W12       30.01F
GOLDN TRIANGLE MOSUNNY   75  45  33 N12       30.01F
STARKVILLE     FAIR      73  45  35 N7        30.01F
TUPELO         MOSUNNY   72  41  32 NW9       30.01F
$$

MSZ040-058-062200-
CENTRAL MISSISSIPPI

CITY           SKY/WX    TMP DP  RH WIND       PRES   REMARKS
JACKSON INTL   SUNNY     74  45  35 N9        30.03F
JACKSON HAWKNS SUNNY     72  45  37 N8G18     30.04F
MADISON        FAIR      72  46  40 N6        30.03F
MERIDIAN KEY   SUNNY     75  44  33 N15G22    30.00F
MERIDIAN NAS   MOSUNNY   75  42  30 VRB6      30.01F
VICKSBURG TVR  SUNNY     75  44  33 NE6G18    30.05F
VICKSBURG VKS  CLEAR     73  46  38 VRB5G13   30.05F
$$

MSZ059>079-062200-
SOUTH MISSISSIPPI

CITY           SKY/WX    TMP DP  RH WIND       PRES   REMARKS
BROOKHAVEN     FAIR     N/A N/A N/A N6        30.05F
COLUMBIA       FAIR      73  46  38 NW9G17    30.05F
HATTIESBURG    SUNNY     75  45  34 NW9       30.02F
LAUREL         FAIR      73  44  34 N8        30.02F
MCCOMB         SUNNY     75  44  33 NW8       30.03F
NATCHEZ        SUNNY     73  45  35 N12G18    30.04F
PINE BELT      MOSUNNY   73  45  35 W6        30.03F
$$

MSZ080>082-062200-
COASTAL MISSISSIPPI

CITY           SKY/WX    TMP DP  RH WIND       PRES   REMARKS
BAY ST LOUIS   SUNNY     75  39  27 N5        30.00F
BILOXI         SUNNY     76  46  35 N3        29.98F
PASCAGOULA     MOSUNNY   76  48  37 NW9       29.98F
GULFPORT       SUNNY     76  45  33 N10G20    29.99F
$$




USA.gov is the U.S. government's official web portal to all federal, state and local government web resources and services.